GW5308 Weather Reports


time (UTC)temp
C
wind
direction
speed
KPH
gust
KPH
rain 1hr
cm
rain 24hr
cm
rain mn
cm
humidity
%
barometer
mb
20260905230045 25 0 0.0 0.0 0.00 2.74 2.41 100 1011.4
20260905225520 25 0 0.0 0.0 0.00 2.74 2.41 100 1011.4
20260905225020 25 0 0.0 0.0 0.00 2.74 2.41 100 1011.3
20260905224537 25 0 0.0 0.0 0.00 2.74 2.41 100 1011.3
20260905224019 25 0 0.0 0.0 0.03 2.74 2.41 100 1011.2
20260905223521 25 0 0.0 0.0 0.03 2.74 2.41 100 1010.9
20260905223043 25 0 0.0 0.0 0.05 2.74 2.41 100 1010.8
20260905222521 25 0 0.0 0.0 0.05 2.74 2.41 100 1010.9
20260905222027 25 0 0.0 0.0 0.08 2.74 2.41 100 1010.9
20260905221547 25 0 0.0 0.0 0.08 2.74 2.41 100 1010.9
20260905221020 25 0 0.0 0.0 0.08 2.74 2.41 100 1010.9
20260905220520 25 0 0.0 0.0 0.08 2.74 2.41 100 1011.0
20260905220041 25 0 0.0 0.0 0.10 2.74 2.41 100 1011.1
20260905215524 25 0 0.0 0.0 0.10 2.74 2.41 100 1011.2
20260905215018 25 0 0.0 0.0 0.13 2.74 2.41 100 1011.2
20260905214539 25 0 0.0 0.0 0.13 2.74 2.41 100 1011.4
20260905214021 25 0 0.0 0.0 0.13 2.72 2.39 100 1011.4
20260905213519 25 0 0.0 0.0 0.13 2.72 2.39 100 1011.3
20260905213040 25 0 0.0 0.0 0.13 2.67 2.36 100 1011.3
20260905212520 25 0 0.0 0.0 0.13 2.67 2.36 100 1011.3
20260905212026 25 0 0.0 0.0 0.13 2.64 2.34 100 1011.3
20260905211545 25 0 0.0 0.0 0.13 2.64 2.34 100 1011.4
20260905211022 25 0 0.0 0.0 0.15 2.64 2.34 100 1011.5
20260905210518 25 0 0.0 0.0 0.15 2.64 2.34 100 1011.4
20260905210055 25 0 0.0 0.0 0.13 2.64 2.31 100 1011.5
20260905205519 25 0 0.0 0.0 0.15 2.64 2.31 100 1011.6
20260905205020 25 0 0.0 0.0 0.13 2.62 2.29 100 1011.8
20260905204542 25 0 0.0 0.0 0.15 2.62 2.29 100 1011.9
20260905204019 25 0 0.0 0.0 0.13 2.59 2.26 100 1012.0
20260905203518 24 0 0.0 0.0 0.13 2.59 2.26 100 1012.0
20260905203038 24 0 0.0 0.0 0.10 2.57 2.24 100 1011.9
20260905202520 24 0 0.0 0.0 0.13 2.57 2.24 100 1012.0
20260905202020 24 0 0.0 0.0 0.10 2.54 2.21 100 1012.1
20260905201539 24 0 0.0 0.0 0.10 2.54 2.21 100 1012.2
20260905201025 24 0 0.0 0.0 0.08 2.51 2.18 100 1012.3
20260905200521 24 0 0.0 0.0 0.08 2.51 2.18 100 1012.6
20260905200055 24 0 0.0 0.0 0.08 2.51 2.18 100 1012.6
20260905195521 24 0 0.0 0.0 0.05 2.49 2.16 100 1012.5
20260905195021 24 0 0.0 0.0 0.05 2.49 2.16 100 1012.6
20260905194540 24 0 0.0 1.6 0.05 2.46 2.13 100 1012.5
20260905194019 24 0 0.0 1.6 0.13 2.46 2.13 100 1012.5
20260905193518 24 0 0.0 0.0 0.25 2.46 2.13 100 1012.6
20260905193035 24 0 0.0 0.0 0.51 2.44 2.11 100 1012.6
20260905192521 24 0 0.0 0.0 1.09 2.44 2.11 100 1012.6
20260905192020 24 0 0.0 0.0 1.47 2.44 2.11 100 1012.5
20260905191540 24 0 0.0 0.0 1.52 2.44 2.11 100 1012.1
20260905191019 23 0 0.0 0.0 1.52 2.44 2.11 100 1012.0
20260905190520 23 0 0.0 0.0 1.52 2.44 2.11 100 1011.9
20260905190039 23 0 0.0 0.0 1.52 2.44 2.11 100 1012.1
20260905185517 23 0 0.0 0.0 1.52 2.44 2.11 100 1012.3
20260905185018 23 0 0.0 0.0 1.52 2.44 2.11 100 1012.4
20260905184542 23 0 0.0 1.6 1.47 2.41 2.08 100 1012.5
20260905184024 23 0 0.0 4.8 1.40 2.31 1.98 99 1013.1
20260905183521 24 0 0.0 6.4 1.30 2.21 1.88 97 1013.1
20260905183039 25 316 1.6 6.4 0.94 1.85 1.52 95 1013.1
20260905182525 26 191 0.0 9.7 0.33 1.24 0.91 94 1013.4
20260905182020 27 276 1.6 11.3 0.03 0.94 0.61 90 1013.1
20260905181541 29 94 3.2 11.3 0.00 0.91 0.58 84 1013.3
20260905181019 31 244 1.6 11.3 0.00 0.91 0.58 82 1012.9
20260905180524 32 0 0.0 1.6 0.00 0.91 0.58 85 1012.4
20260905180039 31 0 0.0 1.6 0.00 0.91 0.58 88 1012.1
20260905175517 31 0 0.0 0.0 0.00 0.91 0.58 90 1012.1
20260905175021 31 0 0.0 1.6 0.18 0.91 0.58 90 1012.1
20260905174539 31 0 0.0 1.6 0.51 0.91 0.58 91 1012.0
20260905174021 31 0 0.0 0.0 0.56 0.91 0.58 95 1012.0
20260905173521 30 0 0.0 0.0 0.56 0.91 0.58 98 1012.2
20260905173041 29 0 0.0 0.0 0.56 0.91 0.58 98 1012.3
20260905172520 28 0 0.0 0.0 0.56 0.91 0.58 100 1012.4
20260905172022 27 0 0.0 0.0 0.56 0.91 0.58 99 1012.5
20260905171555 27 0 0.0 0.0 0.56 0.91 0.58 98 1012.5
20260905171021 26 0 0.0 0.0 0.56 0.91 0.58 97 1012.5
20260905170518 26 0 0.0 0.0 0.56 0.91 0.58 96 1012.6
20260905170039 26 0 0.0 4.8 0.56 0.91 0.58 93 1012.9
20260905165517 27 0 0.0 4.8 0.56 0.91 0.58 90 1012.9
20260905165023 29 114 0.0 3.2 0.30 0.66 0.33 84 1013.4
20260905164541 32 0 0.0 3.2 0.05 0.41 0.08 84 1013.2
20260905164020 33 0 0.0 3.2 0.00 0.36 0.03 80 1013.3
20260905163521 33 0 0.0 3.2 0.00 0.36 0.03 78 1013.2
20260905163039 33 0 0.0 0.0 0.00 0.36 0.03 78 1013.3
20260905162520 33 0 0.0 3.2 0.00 0.36 0.03 79 1013.3
20260905162019 32 0 0.0 3.2 0.00 0.36 0.03 81 1013.4
20260905161542 32 0 0.0 3.2 0.00 0.36 0.03 80 1013.5
20260905161020 32 0 0.0 6.4 0.00 0.36 0.03 82 1013.5
20260905160520 32 0 0.0 6.4 0.00 0.36 0.03 80 1013.6
20260905160046 32 253 0.0 6.4 0.00 0.36 0.03 80 1013.7
20260905155518 32 144 0.0 3.2 0.00 0.36 0.03 81 1013.7
20260905155016 32 0 0.0 3.2 0.00 0.36 0.03 82 1013.8
20260905154552 32 0 0.0 3.2 0.00 0.36 0.03 82 1013.8
20260905154020 32 0 0.0 3.2 0.00 0.36 0.03 82 1013.8
20260905153521 32 0 0.0 1.6 0.00 0.36 0.03 84 1013.9
20260905153042 32 0 0.0 1.6 0.00 0.36 0.03 83 1013.8
20260905152525 31 0 0.0 4.8 0.00 0.36 0.03 86 1013.9
20260905152019 31 0 0.0 4.8 0.00 0.36 0.03 86 1014.0
20260905151538 31 71 0.0 4.8 0.00 0.36 0.03 86 1014.0
20260905151024 31 0 0.0 1.6 0.00 0.36 0.03 85 1014.0
20260905150520 31 195 0.0 1.6 0.00 0.36 0.03 88 1014.0
20260905150039 31 0 0.0 1.6 0.00 0.36 0.03 90 1014.0
20260905145520 30 0 0.0 1.6 0.00 0.36 0.03 90 1014.1
20260905145023 30 0 0.0 1.6 0.00 0.36 0.03 91 1014.1
20260905144550 29 0 0.0 1.6 0.00 0.36 0.03 93 1014.1
20260905144017 29 0 0.0 0.0 0.00 0.36 0.03 94 1014.1
20260905143521 28 0 0.0 0.0 0.00 0.36 0.03 97 1014.1
20260905143036 28 0 0.0 0.0 0.00 0.36 0.03 98 1014.1
20260905142520 27 0 0.0 0.0 0.00 0.36 0.03 100 1014.3
20260905142026 27 0 0.0 0.0 0.00 0.36 0.03 100 1014.1
20260905141540 26 0 0.0 0.0 0.00 0.36 0.03 100 1014.1
20260905141021 26 0 0.0 0.0 0.00 0.36 0.03 100 1014.0
20260905140519 26 0 0.0 0.0 0.00 0.36 0.03 100 1014.0
20260905140042 26 0 0.0 0.0 0.00 0.36 0.03 100 1014.0
20260905135520 26 0 0.0 0.0 0.00 0.36 0.03 100 1013.8
20260905135019 26 0 0.0 0.0 0.00 0.36 0.03 100 1013.8
20260905134544 26 0 0.0 0.0 0.00 0.36 0.03 100 1013.9
20260905134020 25 0 0.0 0.0 0.00 0.36 0.03 100 1013.8
20260905133522 25 0 0.0 0.0 0.00 0.36 0.03 100 1013.8
20260905133037 25 0 0.0 0.0 0.00 0.36 0.03 100 1013.9
20260905132519 25 0 0.0 0.0 0.00 0.36 0.03 100 1013.9
20260905132023 25 0 0.0 0.0 0.00 0.36 0.03 100 1013.8
20260905131537 25 0 0.0 0.0 0.00 0.36 0.03 100 1013.9
20260905131020 25 0 0.0 0.0 0.00 0.36 0.03 100 1013.9
20260905130520 25 0 0.0 0.0 0.00 0.36 0.03 100 1013.8
20260905130040 25 0 0.0 0.0 0.00 0.36 0.03 100 1013.8
20260905125522 25 0 0.0 0.0 0.00 0.36 0.03 100 1013.8
20260905125019 25 0 0.0 0.0 0.00 0.36 0.03 100 1013.7
20260905124548 25 0 0.0 0.0 0.00 0.36 0.03 100 1013.7
20260905124023 25 0 0.0 0.0 0.00 0.36 0.03 100 1013.6
20260905123516 25 0 0.0 0.0 0.00 0.36 0.03 100 1013.6
20260905123037 25 0 0.0 0.0 0.00 0.36 0.03 100 1013.6
20260905122527 25 0 0.0 0.0 0.00 0.36 0.03 100 1013.6
20260905122019 24 0 0.0 0.0 0.00 0.36 0.03 100 1013.6
20260905121539 24 0 0.0 0.0 0.00 0.36 0.03 100 1013.5
20260905121020 24 0 0.0 0.0 0.00 0.36 0.03 100 1013.6
20260905120520 24 0 0.0 0.0 0.00 0.36 0.03 100 1013.6
20260905120040 24 0 0.0 0.0 0.00 0.36 0.03 100 1013.4
20260905115521 24 0 0.0 0.0 0.00 0.36 0.03 100 1013.4
20260905115022 24 0 0.0 0.0 0.00 0.36 0.03 100 1013.3
20260905114539 24 0 0.0 0.0 0.00 0.36 0.03 100 1013.3
20260905114020 24 0 0.0 0.0 0.00 0.36 0.03 100 1013.2
20260905113526 24 0 0.0 0.0 0.00 0.36 0.03 100 1013.0
20260905113038 23 0 0.0 0.0 0.00 0.36 0.03 100 1013.1
20260905112521 23 0 0.0 0.0 0.00 0.36 0.03 100 1013.2
20260905112020 23 0 0.0 0.0 0.00 0.36 0.03 100 1013.1
20260905111541 23 0 0.0 0.0 0.00 0.36 0.03 100 1013.2
20260905111019 23 0 0.0 0.0 0.00 0.36 0.03 100 1013.1
20260905110520 23 0 0.0 0.0 0.00 0.36 0.03 100 1013.0
20260905110039 23 0 0.0 0.0 0.00 0.36 0.03 100 1013.0
20260905105521 23 0 0.0 0.0 0.00 0.36 0.03 100 1012.9
20260905105021 24 0 0.0 0.0 0.00 0.36 0.03 100 1012.9
20260905104545 23 0 0.0 0.0 0.00 0.36 0.03 100 1012.8
20260905104025 23 0 0.0 0.0 0.00 0.36 0.03 100 1012.8
20260905103518 23 0 0.0 0.0 0.00 0.36 0.03 100 1012.7
20260905103045 23 0 0.0 0.0 0.00 0.36 0.03 100 1012.5
20260905102520 23 0 0.0 0.0 0.00 0.36 0.03 100 1012.5
20260905102019 23 0 0.0 0.0 0.00 0.36 0.03 100 1012.5
20260905101540 24 0 0.0 0.0 0.00 0.36 0.03 100 1012.5
20260905101018 23 0 0.0 0.0 0.00 0.36 0.03 100 1012.4
20260905100521 23 0 0.0 0.0 0.00 0.36 0.03 100 1012.4
20260905100041 23 0 0.0 0.0 0.00 0.36 0.03 100 1012.4
20260905095521 23 0 0.0 0.0 0.00 0.36 0.03 100 1012.5
20260905095021 23 0 0.0 0.0 0.00 0.36 0.03 100 1012.4
20260905094547 23 0 0.0 0.0 0.00 0.36 0.03 100 1012.3
20260905094021 23 0 0.0 0.0 0.00 0.36 0.03 100 1012.3
20260905093521 23 0 0.0 0.0 0.00 0.36 0.03 100 1012.4
20260905093044 23 0 0.0 0.0 0.00 0.36 0.03 100 1012.5
20260905092519 23 0 0.0 0.0 0.00 0.36 0.03 100 1012.5
20260905092019 23 0 0.0 0.0 0.00 0.36 0.03 100 1012.4
20260905091542 23 0 0.0 0.0 0.00 0.36 0.03 100 1012.5
20260905091022 23 0 0.0 0.0 0.00 0.36 0.03 100 1012.5
20260905090538 23 0 0.0 0.0 0.00 0.36 0.03 100 1012.4
20260905090035 23 0 0.0 0.0 0.00 0.36 0.03 100 1012.6
20260905085521 23 0 0.0 0.0 0.00 0.36 0.03 100 1012.5
20260905085025 23 0 0.0 0.0 0.00 0.36 0.03 100 1012.5
20260905084542 23 0 0.0 0.0 0.00 0.36 0.03 100 1012.5
20260905084021 23 0 0.0 0.0 0.00 0.36 0.03 100 1012.4
20260905083522 23 0 0.0 0.0 0.00 0.36 0.03 100 1012.5
20260905083040 23 0 0.0 0.0 0.00 0.36 0.03 100 1012.5
20260905082520 23 0 0.0 0.0 0.00 0.36 0.03 100 1012.6
20260905082019 23 0 0.0 0.0 0.00 0.36 0.03 100 1012.7
20260905081539 23 0 0.0 0.0 0.00 0.36 0.03 100 1012.7
20260905081023 23 0 0.0 0.0 0.00 0.36 0.03 100 1012.6
20260905080520 23 0 0.0 0.0 0.00 0.36 0.03 100 1012.6
20260905080051 23 0 0.0 0.0 0.00 0.36 0.03 100 1012.7
20260905075521 23 0 0.0 0.0 0.00 0.36 0.03 100 1012.7
20260905075025 23 0 0.0 0.0 0.00 0.36 0.03 100 1012.6
20260905074539 23 0 0.0 0.0 0.00 0.36 0.03 100 1012.5
20260905074020 23 0 0.0 0.0 0.00 0.36 0.03 100 1012.4
20260905073519 23 0 0.0 0.0 0.00 0.36 0.03 100 1012.5
20260905073046 23 0 0.0 0.0 0.00 0.36 0.03 100 1012.5
20260905072520 23 0 0.0 0.0 0.00 0.36 0.03 100 1012.4
20260905072019 23 0 0.0 0.0 0.00 0.36 0.03 100 1012.4
20260905071548 23 0 0.0 0.0 0.00 0.36 0.03 100 1012.5
20260905071017 23 0 0.0 0.0 0.00 0.36 0.03 100 1012.5
20260905070519 23 0 0.0 0.0 0.00 0.36 0.03 100 1012.6
20260905070046 23 0 0.0 0.0 0.00 0.36 0.03 100 1012.8
20260905065524 23 0 0.0 0.0 0.00 0.36 0.03 100 1012.9
20260905065023 23 0 0.0 0.0 0.00 0.36 0.03 100 1013.0
20260905064539 23 0 0.0 0.0 0.00 0.36 0.03 100 1013.1
20260905064023 23 0 0.0 0.0 0.00 0.36 0.03 100 1013.1
20260905063523 23 0 0.0 0.0 0.00 0.36 0.03 100 1013.1
20260905063041 23 0 0.0 0.0 0.00 0.36 0.03 100 1013.2
20260905062520 23 0 0.0 0.0 0.00 0.36 0.03 100 1013.2
20260905062020 23 0 0.0 0.0 0.00 0.36 0.03 100 1013.3
20260905061601 23 0 0.0 0.0 0.00 0.36 0.03 100 1013.3
20260905061020 23 0 0.0 0.0 0.00 0.36 0.03 100 1013.4
20260905060517 23 0 0.0 0.0 0.00 0.36 0.03 100 1013.4
20260905060035 23 0 0.0 0.0 0.00 0.36 0.03 100 1013.4
20260905055519 23 0 0.0 0.0 0.00 0.36 0.03 100 1013.3
20260905055022 23 0 0.0 0.0 0.00 0.36 0.03 100 1013.5
20260905054539 23 0 0.0 0.0 0.00 0.36 0.03 100 1013.5
20260905054021 23 0 0.0 0.0 0.00 0.36 0.03 100 1013.6
20260905053522 23 0 0.0 0.0 0.00 0.36 0.03 100 1013.6
20260905053041 23 0 0.0 0.0 0.00 0.36 0.03 100 1013.5
20260905052520 23 0 0.0 0.0 0.00 0.36 0.03 100 1013.7
20260905052021 23 0 0.0 0.0 0.00 0.36 0.03 100 1013.7
20260905051543 23 0 0.0 0.0 0.00 0.36 0.03 100 1013.7
20260905051020 23 0 0.0 0.0 0.00 0.36 0.03 100 1013.7
20260905050523 23 0 0.0 0.0 0.00 0.36 0.03 100 1013.8
20260905050040 23 0 0.0 0.0 0.03 0.36 0.03 100 1013.8
20260905045516 23 0 0.0 0.0 0.03 0.36 0.03 100 1013.8
20260905045021 23 0 0.0 0.0 0.03 0.36 0.03 100 1013.8
20260905044539 23 0 0.0 0.0 0.03 0.36 0.03 100 1013.9
20260905044019 23 0 0.0 0.0 0.03 0.36 0.03 100 1013.9
20260905043521 23 0 0.0 0.0 0.03 0.36 0.03 100 1013.9
20260905043106 23 0 0.0 0.0 0.03 0.36 0.03 100 1013.9
20260905042524 23 0 0.0 0.0 0.03 0.36 0.03 100 1014.0
20260905042021 23 0 0.0 0.0 0.03 0.36 0.03 100 1013.9
20260905041540 23 0 0.0 0.0 0.03 0.36 0.03 100 1014.0
20260905041020 23 0 0.0 0.0 0.03 0.36 0.03 100 1014.1
20260905040520 23 0 0.0 0.0 0.03 0.36 0.03 100 1014.2
20260905040052 23 0 0.0 0.0 0.00 0.33 0.00 100 1014.1
20260905035519 23 0 0.0 0.0 0.00 0.33 0.33 100 1014.1
20260905035021 23 0 0.0 0.0 0.00 0.33 0.33 100 1014.1
20260905034537 23 0 0.0 0.0 0.00 0.33 0.33 100 1014.1
20260905034021 23 0 0.0 0.0 0.00 0.33 0.33 100 1014.2
20260905033520 23 0 0.0 0.0 0.00 0.33 0.33 100 1014.2
20260905033042 23 0 0.0 0.0 0.00 0.33 0.33 100 1014.3
20260905032523 23 0 0.0 0.0 0.00 0.33 0.33 100 1014.3
20260905032022 23 0 0.0 0.0 0.00 0.33 0.33 100 1014.2
20260905031537 23 0 0.0 0.0 0.00 0.33 0.33 100 1014.3
20260905031022 23 0 0.0 0.0 0.00 0.33 0.33 100 1014.4
20260905030519 23 0 0.0 0.0 0.00 0.33 0.33 100 1014.4
20260905030042 23 0 0.0 0.0 0.00 0.33 0.33 100 1014.3
20260905025519 23 0 0.0 0.0 0.00 0.33 0.33 100 1014.4
20260905025021 23 0 0.0 0.0 0.00 0.33 0.33 100 1014.5
20260905024541 23 0 0.0 0.0 0.00 0.33 0.33 100 1014.5
20260905024025 23 0 0.0 0.0 0.00 0.33 0.33 100 1014.5
20260905023519 23 0 0.0 0.0 0.00 0.33 0.33 100 1014.4
20260905023043 23 0 0.0 0.0 0.00 0.33 0.33 100 1014.5
20260905022526 23 0 0.0 0.0 0.00 0.33 0.33 100 1014.5
20260905022021 23 0 0.0 0.0 0.00 0.33 0.33 100 1014.5
20260905021547 23 0 0.0 0.0 0.00 0.33 0.33 100 1014.5
20260905021020 23 0 0.0 0.0 0.00 0.33 0.33 100 1014.5
20260905020519 23 0 0.0 0.0 0.00 0.33 0.33 100 1014.5
20260905020041 23 0 0.0 0.0 0.03 0.33 0.33 100 1014.5
20260905015526 23 0 0.0 0.0 0.03 0.33 0.33 100 1014.4
20260905015020 23 0 0.0 0.0 0.05 0.33 0.33 100 1014.5
20260905014536 23 0 0.0 0.0 0.05 0.33 0.33 100 1014.5
20260905014021 23 0 0.0 0.0 0.08 0.33 0.33 100 1014.5
20260905013524 23 0 0.0 0.0 0.10 0.33 0.33 100 1014.5
20260905013035 23 0 0.0 0.0 0.10 0.33 0.33 100 1014.4
20260905012520 23 0 0.0 0.0 0.13 0.33 0.33 100 1014.5
20260905012021 23 0 0.0 0.0 0.15 0.33 0.33 100 1014.4
20260905011541 23 0 0.0 0.0 0.18 0.33 0.33 100 1014.4
20260905011019 23 0 0.0 0.0 0.20 0.33 0.33 100 1014.3
20260905010520 24 0 0.0 0.0 0.20 0.33 0.33 100 1014.2
20260905010044 24 0 0.0 0.0 0.20 0.30 0.30 100 1014.2
20260905005520 24 0 0.0 0.0 0.25 0.30 0.30 100 1014.0
20260905005019 24 0 0.0 0.0 0.25 0.28 0.28 100 1014.1
20260905004538 24 0 0.0 0.0 0.25 0.28 0.28 100 1014.1
20260905004023 24 0 0.0 0.0 0.25 0.25 0.25 100 1014.1
20260905003522 24 0 0.0 0.0 0.23 0.23 0.23 100 1014.1
20260905003039 24 0 0.0 0.0 0.23 0.23 0.23 100 1014.1
20260905002520 24 0 0.0 0.0 0.20 0.20 0.20 100 1014.1
20260905002021 24 0 0.0 0.0 0.18 0.18 0.18 100 1014.3
20260905001540 24 0 0.0 0.0 0.15 0.15 0.15 100 1014.2
20260905001020 24 0 0.0 0.0 0.13 0.13 0.13 100 1014.0
20260905000521 24 0 0.0 0.0 0.13 0.13 0.13 100 1014.0
20260905000038 24 0 0.0 0.0 0.08 0.08 0.08 100 1013.8
20260904235522 24 0 0.0 0.0 0.05 0.05 0.05 100 1013.9
20260904235021 25 0 0.0 0.0 0.03 0.03 0.03 100 1014.1
20260904234543 25 0 0.0 0.0 0.03 0.03 0.03 100 1014.1
20260904234023 25 0 0.0 0.0 0.00 0.00 0.00 100 1014.1
20260904233522 25 0 0.0 0.0 0.00 0.00 0.00 100 1014.1
20260904233036 25 0 0.0 0.0 0.00 0.00 0.00 100 1014.2
20260904232520 25 0 0.0 0.0 0.00 0.00 0.00 100 1014.2
20260904232020 25 0 0.0 0.0 0.00 0.00 0.00 100 1014.2
20260904231542 25 0 0.0 0.0 0.00 0.00 0.00 100 1014.2
20260904231022 25 0 0.0 0.0 0.00 0.00 0.00 100 1014.1
20260904230519 25 0 0.0 0.0 0.00 0.00 0.00 100 1014.2